Location: Honolulu
(21.3069°N, 157.8583°W)
Time: 06:16:18
(UTC-10:00)

A-11 Canister half - Pass Details

Date: 14 May 2026
Orbit: 1524 x 1684 km, 47.3° (Epoch: 5 June)

Event Time Altitude Azimuth Distance (km) Brightness Sun altitude
Rises 19:56:35 0° 302° (WNW) 4,764 13.6 -12.4°
Reaches altitude 10° 20:02:08 10° 327° (NNW) 3,817 12.0 -13.6°
Maximum altitude 20:06:29 13° 354° (N) 3,569 11.3 -14.5°
Drops below altitude 10° 20:10:54 10° 22° (NNE) 3,876 11.2 -15.4°
Sets 20:16:38 0° 47° (NE) 4,896 11.5 -16.6°
